Location: Scis
(46.5333°N, 11.5667°E)
Time: 14:34:58
(UTC+00:00)

Daily predictions for brighter satellites

Satellite Brightness Start Highest point End
(mag) Time Altitude Azimuth Time Altitude Azimuth Time Altitude Azimuth
Cosmos 909 Rocket 4.1 18:34:18 10° SSW 18:40:29 56° ESE 18:46:45 10° NE
Cosmos 405 Rocket 3.5 18:37:51 10° N 18:41:34 36° ENE 18:45:12 10° SE
Cosmos 2237 Rocket 2.8 18:37:40 10° NNW 18:43:02 42° NE 18:48:21 10° SE
Helios 1A Rocket 3.3 18:41:33 10° S 18:45:37 67° WSW 18:49:44 10° NNW
Cosmos 1818 3.6 18:41:36 10° SSW 18:47:01 79° SE 18:52:32 10° NE
DMSP B5D2-2 4.1 18:43:03 10° NNE 18:48:21 86° ESE 18:53:37 10° SSW
H-2A R/B 4.3 18:45:48 10° SSW 18:49:53 25° W 18:53:56 10° NW
Cosmos 1892 4.0 18:49:13 10° NNW 18:52:49 43° W 18:56:26 10° SSW
Cosmos 1825 2.1 18:50:40 10° N 18:54:28 86° E 18:58:14 10° S
MetOp-A 4.3 18:52:32 10° S 18:57:53 79° WSW 19:03:17 10° NNW
Exosat Rocket 3.8 18:51:45 10° NNW 18:58:07 88° WSW 19:03:11 10° SSE
Cosmos 2227 Rocket 3.1 18:53:51 10° SSE 18:58:31 27° ESE 19:03:12 10° NE
CZ-4C R/B 4.4 18:54:27 10° W 18:58:58 27° NNW 19:04:18 10° NNE
Abrixas rocket 0.6 18:57:46 10° W 18:59:20 63° NNW 19:00:44 12° ENE
ATLAS 2AS CENTAUR R/B 3.7 18:53:01 10° WSW 19:00:50 60° NW 19:08:29 10° NE
BREEZE-M DEB (TANK) 3.9 18:57:51 10° WSW 19:00:52 79° NNW 19:08:40 10° ENE
Cosmos 1092 Rocket 4.3 18:55:12 10° NNW 19:01:26 74° W 19:07:34 10° S
Cosmos 2058 3.0 18:59:53 10° N 19:04:06 82° W 19:08:14 10° S
Cosmos 2297 Rocket 2.6 18:59:51 10° S 19:05:02 39° ESE 19:10:14 10° NE
FALCON 9 DEB 3.8 19:03:42 10° SSW 19:06:21 27° SE 19:09:01 10° ENE
Cosmos 1633 3.6 19:03:35 10° NNE 19:06:46 28° ENE 19:09:14 14° SE
Lacrosse 5 rocket 3.7 19:04:55 10° NW 19:08:02 20° N 19:11:15 10° NE
FALCON 9 DEB 3.4 19:08:11 10° SSW 19:11:00 36° SE 19:13:50 10° ENE
Resurs 01 Rocket 2.3 19:08:36 12° SE 19:12:24 39° ENE 19:16:34 10° N
Resurs 1-3 3.6 19:09:45 10° SSE 19:14:05 67° ENE 19:18:28 10° N
Cosmos 2219 3.6 19:08:57 10° S 19:14:09 41° ESE 19:19:24 10° NE
Genesis I 3.8 19:10:53 10° NNW 19:14:45 46° NE 19:17:40 16° ESE
BREEZE-M DEB (TANK) 3.8 19:12:14 10° W 19:16:06 76° N 19:29:55 10° ENE
Cosmos 2333 Rocket 3.8 19:11:39 10° NW 19:16:44 33° WSW 19:21:45 10° SSW
SJ-6B 3.3 19:14:26 10° S 19:18:06 58° W 19:21:51 10° NNW
Cosmos 2084 Rocket 3.7 19:18:43 10° S 19:22:22 37° ESE 19:26:07 10° NE
Cosmos 389 Rocket 2.4 19:19:15 10° S 19:22:46 80° E 19:26:22 10° NNE
Cosmos 1190 Rocket 4.4 19:18:04 10° S 19:22:57 41° ESE 19:27:50 10° NE
ERS-2 4.1 19:19:39 10° N 19:22:57 33° WNW 19:26:14 10° SW
FALCON 9 DEB 2.9 19:20:06 10° SW 19:23:02 49° SE 19:25:59 10° ENE
Ariane Rocket 3.0 19:19:25 10° SSE 19:24:29 84° WSW 19:29:34 10° NNW
Cosmos 614 Rocket 4.1 19:21:21 10° SSW 19:26:29 78° WNW 19:31:37 10° NNE
Terra 3.9 19:25:13 10° E 19:27:10 12° ENE 19:29:07 10° NNE
Cosmos 2251 Rocket 4.3 19:23:02 10° SW 19:28:18 58° WNW 19:33:35 10° NNE
ATLAS 3B R/B 3.6 19:24:45 10° NW 19:31:29 49° WSW 19:38:27 10° S
Cosmos 2279 Rocket 4.0 19:26:46 10° S 19:32:57 88° E 19:39:12 10° N
SPOT 1/Viking Rocket 4.2 19:33:39 19° SE 19:36:54 41° ENE 19:41:46 10° N
SPOT 5 4.4 19:34:55 15° E 19:36:55 20° ENE 19:40:21 10° NNE
Cosmos-2242 3.3 19:35:48 15° SSE 19:39:05 47° E 19:43:13 10° NNE
Cosmos 1980 3.9 19:33:43 10° NNW 19:39:24 74° WSW 19:44:12 15° SSE
USA 215 3.8 19:34:16 13° E 19:39:55 53° NNE 19:46:14 10° NW
SL-16 R/B 2.8 19:34:38 10° NNW 19:40:04 43° NE 19:43:26 21° ESE
Cosmos 2151 2.9 19:36:56 10° N 19:41:15 71° E 19:44:09 20° SSE
Meteor 2-21 Rocket 4.5 19:35:48 10° N 19:41:48 61° ENE 19:46:19 18° SSE
SPOT 3 Rocket 3.5 19:40:39 17° SSE 19:44:44 78° ENE 19:49:56 10° NNW
FALCON 9 DEB 2.7 19:41:48 10° SW 19:44:50 65° SSE 19:46:41 21° ENE
COSMOS 2455 3.3 19:42:48 10° S 19:48:18 39° ESE 19:53:50 10° NE
SL-4 R/B 2.1 19:47:27 10° SW 19:51:47 66° SSE 19:56:25 10° ENE
BREEZE M DEB (TANK) 4.0 19:51:28 10° SSW 19:54:58 44° SE 20:04:59 10° ENE
ERS-1 Rocket 4.0 19:53:53 23° ESE 19:55:49 31° ENE 20:00:12 10° N
IGS 5A 3.4 19:54:21 24° SSE 19:56:48 88° W 20:00:59 10° NNW
Cosmos 2266 Rocket 4.0 19:51:40 10° N 19:58:04 79° E 20:02:36 20° SSE
OBJECT-B 3.6 19:55:59 10° SW 19:58:09 17° W 20:00:20 10° NW
Landsat 7 3.7 19:55:13 23° SSE 19:58:10 84° ENE 20:02:58 10° NNW
Timation 1 Rocket 4.5 19:57:36 10° S 20:03:20 50° ESE 20:09:04 10° NE
Cosmos 2221 4.0 20:05:05 20° ENE 20:05:05 20° ENE 20:07:47 10° NE
ARIANE 5 R/B 2.9 20:04:04 35° ESE 20:05:29 49° ENE 20:09:44 10° N
USA 245 3.0 20:05:50 49° ESE 20:06:25 57° ENE 20:09:24 10° N
Cosmos 2344 4.3 19:59:10 10° WSW 20:06:26 54° NW 20:14:26 10° NE
Cosmos 407 Rocket 3.9 20:01:59 10° SSW 20:07:05 65° WNW 20:12:15 10° NNE
MetOp-B 4.2 20:09:17 24° S 20:12:35 81° WSW 20:17:58 10° NNW
Meteor 2-3 Rocket 3.9 20:08:19 10° NNW 20:14:05 76° W 20:17:47 22° S
Meteor 1-27 4.2 20:14:09 17° S 20:18:43 82° E 20:24:34 10° NNE
Cosmos 44 Rocket 3.4 20:13:50 10° SSW 20:18:46 58° ESE 20:23:53 10° NE
TSX-5 4.5 20:18:59 42° ESE 20:18:59 42° ESE 20:22:52 10° NE
Cosmos 1140 Rocket 4.1 20:15:21 10° SW 20:20:23 57° WNW 20:25:27 10° NNE
Cosmos 1954 Rocket 3.9 20:19:28 11° SSW 20:24:23 86° ESE 20:29:36 10° NNE
CZ-2C R/B 3.7 20:20:14 10° N 20:24:41 75° WNW 20:27:43 20° SSW
Cosmos 2237 Rocket 3.5 20:21:57 10° NW 20:26:58 33° WSW 20:30:47 16° SSW
Timation 2 Rocket 4.3 20:20:56 10° SW 20:27:28 71° WNW 20:33:47 10° NNE
Meteor 2-15 4.4 20:29:12 36° SSE 20:31:33 60° E 20:37:30 10° NNE
Cosmos 2263 Rocket 3.4 20:34:38 25° E 20:34:38 25° E 20:38:00 10° NE
Spot 2 Rocket 3.4 20:32:07 41° S 20:33:57 85° WSW 20:39:04 10° NNW
CARTOSAT-1 3.4 20:33:28 59° SSE 20:34:15 82° ENE 20:38:36 10° NNW
Aureole 1 Rocket 4.3 20:35:06 33° E 20:35:06 33° E 20:38:45 10° NE
Cosmos 1766 Rocket 3.6 20:30:57 10° NNW 20:35:18 75° W 20:36:22 50° SSW
USA 229 DEB 4.4 20:28:42 10° NW 20:35:43 50° NE 20:39:35 28° E
BREEZE M DEB (TANK) 2.7 20:29:19 10° W 20:35:46 62° NNW 20:36:34 44° NE
USA 229 4.4 20:28:48 10° NW 20:35:48 50° NE 20:39:42 28° E
FALCON 9 DEB 4.0 20:39:04 10° W 20:41:38 43° NW 20:41:38 43° NW
Cosmos 2227 Rocket 3.0 20:36:44 10° SW 20:42:15 52° WNW 20:47:48 10° NNE
Cosmos 2082 3.6 20:37:15 13° SSW 20:42:16 90° SSE 20:47:55 10° NNE
Okean 3 Rocket 3.9 20:39:58 10° NNW 20:44:27 61° W 20:45:39 44° SSW
H-2A R/B 4.2 20:41:30 10° NNE 20:44:43 39° ENE 20:44:43 39° ENE
FALCON 9 DEB 4.2 20:43:50 10° W 20:46:28 38° NW 20:46:28 38° NW
Lacrosse 5 rocket 3.1 20:44:30 10° NW 20:48:17 29° NNE 20:49:58 22° ENE
Cosmos 1869 3.9 20:47:58 40° SW 20:49:01 53° WNW 20:52:54 10° N
Resurs 01 Rocket 3.6 20:46:10 13° SW 20:49:01 23° W 20:52:36 10° NW
Cosmos 2297 Rocket 3.6 20:43:51 10° WSW 20:49:04 38° NW 20:54:21 10° NNE
Cosmos 1553 Rocket 4.1 20:48:26 45° ESE 20:49:25 49° E 20:55:16 10° NNE
Meteor 1-4 Rocket 3.2 20:50:30 48° W 20:50:42 49° WNW 20:54:10 10° N
Cosmos 468 Rocket 3.8 20:45:38 10° NNW 20:50:48 88° WSW 20:51:46 60° SSE
NOSS 3-1 (A) 4.4 20:46:32 10° NW 20:53:46 58° NE 20:57:37 33° ESE
Cosmos 1603 4.3 20:49:17 10° NNW 20:54:47 45° NE 20:55:59 39° E
Cosmos 841 Rocket 3.8 20:50:34 10° NNW 20:55:39 50° ENE 20:56:15 47° E
Cosmos 1763 Rocket 3.4 20:58:34 10° NNW 21:03:38 72° WSW 21:04:17 63° SSW
Terra 1.6 21:03:52 78° SE 21:04:09 84° ENE 21:08:56 10° NNW
Cosmos 1814 Rocket 4.4 21:06:16 10° NNW 21:11:25 48° ENE 21:11:45 48° ENE
Cosmos 540 Rocket 3.3 21:06:18 10° NNW 21:11:27 75° ENE 21:11:41 73° E
Cosmos 921 Rocket 3.6 21:08:33 10° N 21:12:21 48° NE 21:12:21 48° NE
SPOT 5 3.1 21:14:08 54° WSW 21:14:32 56° W 21:19:17 10° NNW
Meteor 2-2 Rocket 4.3 21:15:41 51° SSW 21:17:13 78° WNW 21:22:56 10° N
NOSS 3-1 (C) 4.0 21:10:10 10° NW 21:17:42 83° SW 21:20:23 49° SSE
Cosmos 1842 Rocket 3.8 21:20:26 65° WNW 21:20:26 65° WNW 21:24:53 10° N
USA 215 3.3 21:21:36 54° S 21:22:51 65° SW 21:29:22 10° NW
SL-16 R/B 3.3 21:19:02 10° NW 21:24:02 33° WSW 21:25:19 30° SW
SL-08 ROCKET BODY 4.4 21:24:39 10° NNW 21:30:42 75° W 21:31:36 63° SSW
SL-4 R/B 3.1 21:27:12 10° W 21:31:39 51° NNW 21:33:32 32° NE
COSMOS 2455 3.9 21:28:28 10° WSW 21:34:11 44° NW 21:39:58 10° NNE
ERS-1 Rocket 3.9 21:33:53 36° WSW 21:34:31 37° W 21:39:11 10° NNW
Cosmos 2227 4.1 21:40:44 80° E 21:40:44 80° E 21:46:22 10° NNE
Cosmos 2221 3.7 21:41:53 37° WNW 21:41:53 37° WNW 21:45:54 10° N
Sich 1 4.0 21:38:28 10° N 21:41:28 42° NNE 21:41:28 42° NNE
Cosmos 1805 Rocket 4.3 21:38:41 10° N 21:41:58 50° N 21:41:58 50° N
Meteor 1-20 Rocket 4.3 21:42:19 10° N 21:48:01 68° ENE 21:48:01 68° ENE
Cosmos 1943 3.1 21:44:36 10° NNW 21:50:06 79° W 21:50:06 79° W
Cosmos 1745 Rocket 3.9 21:46:31 10° NNW 21:52:49 74° W 21:53:25 68° SW
SeaSat 1 3.5 21:48:17 10° NE 21:51:19 35° NE 21:51:19 35° NE
Cosmos 1570 Rocket 4.1 21:48:25 10° NNW 21:53:15 70° WNW 21:53:15 70° WNW
Iridium 4 Rocket 4.5 21:58:16 37° NE 21:58:16 37° NE 22:02:17 10° NNE
Cosmos 1709 Rocket 3.9 21:51:50 10° N 21:58:03 75° E 21:58:09 74° E
Spot 4 4.4 22:00:15 55° NNE 22:00:15 55° NNE 22:04:15 10° N
Cosmos 1633 Rocket 4.4 21:59:25 10° N 22:02:12 35° NNE 22:02:12 35° NNE
S3M 4.2 22:05:25 59° WSW 22:06:20 66° W 22:12:44 10° N
Cosmos 883 Rocket 4.3 22:06:43 84° ESE 22:06:46 84° E 22:13:06 10° N
Cosmos 2263 Rocket 2.8 22:16:15 48° W 22:17:02 51° WNW 22:22:29 10° NNE
Cosmos 968 Rocket 4.3 22:22:53 44° NE 22:22:53 44° NE 22:26:33 10° NNE
USA 229 DEB 4.2 22:19:45 10° NW 22:26:48 50° WSW 22:27:01 50° SW
USA 229 4.2 22:19:50 10° NW 22:26:54 50° WSW 22:27:07 50° SW
Lacrosse 5 rocket 3.2 22:23:27 10° NW 22:25:35 28° NW 22:25:35 28° NW
Cosmos 1844 Rocket 3.7 22:30:56 36° ENE 22:30:56 36° ENE 22:34:29 10° NE
ALOS 2 3.9 22:35:37 38° N 22:35:37 38° N 22:38:24 10° N
Terra 4.3 22:42:44 12° W 22:42:44 12° W 22:44:24 10° WNW
Meteor 1-5 Rocket 4.5 22:56:42 10° N 23:01:31 65° N 23:01:31 65° N
Cosmos 2154 Rocket 4.2 22:57:56 10° N 23:04:10 63° ENE 23:04:10 63° ENE
SL-4 R/B 4.4 23:07:23 10° WNW 23:09:09 22° WNW 23:09:09 22° WNW
Cosmos 2184 Rocket 4.0 23:09:02 10° N 23:14:58 75° NW 23:14:58 75° NW
SJ 16-02 3.9 23:17:22 13° ENE 23:17:22 13° ENE 23:18:18 10° NE
Cosmos 2278 Rocket 4.0 23:19:29 21° E 23:19:29 21° E 23:22:30 10° NE
ATLAS 5 CENTAUR R/B 3.2 23:20:12 10° NNW 23:25:24 44° NE 23:27:06 36° E
SeaSat 1 4.1 23:26:17 10° N 23:30:24 27° NW 23:31:05 26° WNW
Cosmos 2341 Rocket 4.4 23:24:25 10° N 23:30:38 53° ENE 23:31:01 52° E
Cosmos 1295 Rocket 4.5 23:24:39 10° N 23:30:44 80° NE 23:30:44 80° NE
Cosmos 1844 4.1 23:41:40 60° NW 23:41:40 60° NW 23:46:59 10° NNE
USA 281 3.0 23:43:08 85° SE 23:43:21 89° ENE 23:49:59 10° NNW
COSMOS 2406 3.8 23:39:01 10° NNW 23:44:34 51° ENE 23:44:55 50° ENE
Cosmos 962 Rocket 4.4 23:46:33 10° N 23:52:36 82° NE 23:52:36 82° NE
Gbstr 26 Del rocket 4.0 23:53:47 64° ENE 23:53:47 64° ENE 23:58:28 10° ENE
